Location: *
(46.1006°N, 1.8394°E)
Time: 00:41:59
(UTC+00:00)

ADEOS Rocket - Pass Details

Date: 20 September 2019
Orbit: 859 x 1306 km, 98.7° (Epoch: 22 October)

Event Time Altitude Azimuth Distance (km) Brightness Sun altitude
Rises 20:21:54 0° 12° (NNE) 4,072 6.5 -25.1°
Reaches altitude 10° 20:24:27 10° 10° (N) 3,157 5.9 -25.5°
Maximum altitude 20:31:46 72° 289° (WNW) 1,333 3.7 -26.5°
Drops below altitude 10° 20:39:28 10° 207° (SSW) 3,313 5.7 -27.6°
Sets 20:42:11 0° 205° (SSW) 4,284 6.3 -28.0°
